Flag for Falkland Islands Weather past 2 weeks in Stanley, Falkland Islands

Now
36 °F

Rain. Low clouds.


Feels Like: 23 °F
Forecast: N/A
Wind: 26 mph from Northeast

Location: Mount Pleasant Airport

Current Time: Jul 28, 2014 at 7:56:34 PM

Latest Report: Jul 28, 2014 at 6:50 PM


Visibility: 2 mi

Pressure: 29.62 "Hg

Humidity: 93%

Dew point: 34 °F

Location of StanleyLocation

Historic Weather in Stanley — Graph

°F

Stanley temperature yesterday

Maximum temperature yesterday: 36 °F (at 2:50 PM)
Minimum temperature yesterday: 27 °F (at 12:50 AM)
Average temperature yesterday: 32 °F

Past Weeks' High & Low Weather Summary

 TemperatureHumidityPressure
High46 °F (Jul 13, 11:50 PM)100% (Jul 14, 2:50 AM)30.18 "Hg (Jul 14, 2:50 AM)
Low21 °F (Jul 26, 8:50 PM)64% (Jul 24, 12:50 PM)29.27 "Hg (Jul 24, 2:50 AM)
Average35 °F89%29.71 "Hg
* Reported Jul 13 5:50 PM — Jul 28 5:50 PM, Stanley, Weather by CustomWeather, © 2014

Note: Actual official high and low records may vary slightly from our data, if they occured in-between our weather recording intervals... More about our weather records

Advertising

Stanley weather history for previous 24 hours

 ConditionsComfort  
Time TempWeatherWind HumidityBarometerVisibility
5:50 PM
Jul 28
34 °FRain. More clouds than sun.29 mph93%29.68 "Hg2 mi
4:50 PM36 °FRain. Mostly cloudy.31 mph93%29.71 "Hg2 mi
3:50 PM37 °FLight rain. Broken clouds.33 mph75%29.74 "HgN/A
2:50 PM37 °FBroken clouds.20 mph75%29.80 "HgN/A
1:50 PM36 °FPartly sunny.21 mph81%29.89 "HgN/A
12:50 PM37 °FPartly sunny.25 mph75%29.95 "HgN/A
11:50 AM36 °FCloudy.22 mph81%29.98 "HgN/A
10:50 AM36 °FPartly sunny.24 mph75%30.01 "HgN/A
9:50 AM36 °FPartly sunny.23 mph65%30.04 "HgN/A
8:50 AM36 °FPassing clouds.20 mph65%30.04 "HgN/A
7:50 AM34 °FPassing clouds.15 mph75%30.07 "HgN/A
6:50 AM34 °FPassing clouds.16 mph93%30.09 "HgN/A
5:50 AM34 °FPassing clouds.7 mph81%30.12 "HgN/A
4:50 AM34 °FPassing clouds.12 mph75%30.12 "HgN/A
3:50 AM34 °FPassing clouds.15 mph70%30.09 "HgN/A
2:50 AM30 °FPassing clouds.3 mph80%30.15 "HgN/A
1:50 AM34 °FPassing clouds.7 mph75%30.15 "HgN/A
12:50 AM34 °FPassing clouds.8 mph87%30.15 "HgN/A
11:50 PM
Jul 27
34 °FPassing clouds.7 mph87%30.18 "HgN/A
10:50 PM34 °FPassing clouds.7 mph87%30.15 "HgN/A
9:50 PM34 °FPassing clouds.10 mph93%30.15 "HgN/A
8:50 PM34 °FPassing clouds.13 mph93%30.15 "HgN/A
7:50 PM34 °FPassing clouds.12 mph93%30.15 "HgN/A
Weather by CustomWeather, © 2014

See weather overviewHow to use our weather pages